Year,Month,Day,Hour,Minute,Value (Times are PST for temperature in C)
2016,05,03,00,00,15.40
2016,05,03,00,01,15.30
2016,05,03,00,02,15.30
2016,05,03,00,03,15.30
2016,05,03,00,04,15.30
2016,05,03,00,06,15.20
2016,05,03,00,07,15.20
2016,05,03,00,08,15.20
2016,05,03,00,09,15.10
2016,05,03,00,10,15.10
2016,05,03,00,11,15.10
2016,05,03,00,12,15.00
2016,05,03,00,13,15.00
2016,05,03,00,14,15.00
2016,05,03,00,15,15.00
2016,05,03,00,16,15.00
2016,05,03,00,17,15.00
2016,05,03,00,18,15.00
2016,05,03,00,19,15.00
2016,05,03,00,20,15.00
2016,05,03,00,21,15.00
2016,05,03,00,22,15.00
2016,05,03,00,23,14.90
2016,05,03,00,24,14.90
2016,05,03,00,25,14.90
2016,05,03,00,26,14.90
2016,05,03,00,27,14.90
2016,05,03,00,28,14.90
2016,05,03,00,29,14.80
2016,05,03,00,30,14.80
2016,05,03,00,31,14.80
2016,05,03,00,32,14.80
2016,05,03,00,33,14.80
2016,05,03,00,34,14.70
2016,05,03,00,35,14.70
2016,05,03,00,36,14.70
2016,05,03,00,37,14.70
2016,05,03,00,38,14.60
2016,05,03,00,39,14.60
2016,05,03,00,40,14.60
2016,05,03,00,41,14.60
2016,05,03,00,42,14.60
2016,05,03,00,43,14.60
2016,05,03,00,44,14.60
2016,05,03,00,45,14.70
2016,05,03,00,46,14.70
2016,05,03,00,47,14.70
2016,05,03,00,48,14.80
2016,05,03,00,49,14.80
2016,05,03,00,50,14.80
2016,05,03,00,51,14.90
2016,05,03,00,52,14.90
2016,05,03,00,53,14.90
2016,05,03,00,54,14.90
2016,05,03,00,55,14.90
2016,05,03,00,56,14.90
2016,05,03,00,57,14.90
2016,05,03,00,58,14.90
2016,05,03,01,00,14.90
2016,05,03,01,01,14.80
2016,05,03,01,02,14.80
2016,05,03,01,03,14.80
2016,05,03,01,04,14.80
2016,05,03,01,05,14.80
2016,05,03,01,06,14.70
2016,05,03,01,07,14.70
2016,05,03,01,08,14.70
2016,05,03,01,09,14.70
2016,05,03,01,10,14.70
2016,05,03,01,11,14.70
2016,05,03,01,12,14.70
2016,05,03,01,13,14.70
2016,05,03,01,14,14.60
2016,05,03,01,15,14.60
2016,05,03,01,16,14.60
2016,05,03,01,17,14.60
2016,05,03,01,18,14.60
2016,05,03,01,19,14.60
2016,05,03,01,20,14.60
2016,05,03,01,21,14.60
2016,05,03,01,22,14.60
2016,05,03,01,23,14.60
2016,05,03,01,24,14.60
2016,05,03,01,25,14.60
2016,05,03,01,26,14.60
2016,05,03,01,27,14.60
2016,05,03,01,28,14.60
2016,05,03,01,29,14.60
2016,05,03,01,30,14.60
2016,05,03,01,31,14.60
2016,05,03,01,32,14.60
2016,05,03,01,33,14.60
2016,05,03,01,34,14.60
2016,05,03,01,35,14.60
2016,05,03,01,36,14.60
2016,05,03,01,37,14.60
2016,05,03,01,38,14.60
2016,05,03,01,39,14.60
2016,05,03,01,42,14.60
2016,05,03,01,44,14.70
2016,05,03,01,45,14.70
2016,05,03,01,46,14.70
2016,05,03,01,47,14.70
2016,05,03,01,48,14.70
2016,05,03,01,49,14.80
2016,05,03,01,50,14.80
2016,05,03,01,51,14.80
2016,05,03,01,52,14.80
2016,05,03,01,53,14.80
2016,05,03,01,54,14.80
2016,05,03,01,55,14.80
2016,05,03,01,56,14.80
2016,05,03,01,57,14.80
2016,05,03,01,58,14.80
2016,05,03,01,59,14.80
2016,05,03,02,00,14.80
2016,05,03,02,01,14.80
2016,05,03,02,02,14.80
2016,05,03,02,03,14.80
2016,05,03,02,04,14.80
2016,05,03,02,05,14.80
2016,05,03,02,06,14.80
2016,05,03,02,07,14.80
2016,05,03,02,08,14.80
2016,05,03,02,09,14.80
2016,05,03,02,10,14.80
2016,05,03,02,11,14.80
2016,05,03,02,12,14.80
2016,05,03,02,13,14.80
2016,05,03,02,14,14.80
2016,05,03,02,15,14.80
2016,05,03,02,16,14.70
2016,05,03,02,17,14.70
2016,05,03,02,18,14.70
2016,05,03,02,19,14.70
2016,05,03,02,20,14.70
2016,05,03,02,21,14.70
2016,05,03,02,22,14.70
2016,05,03,02,23,14.70
2016,05,03,02,24,14.70
2016,05,03,02,25,14.80
2016,05,03,02,26,14.70
2016,05,03,02,27,14.80
2016,05,03,02,28,14.80
2016,05,03,02,29,14.80
2016,05,03,02,30,14.70
2016,05,03,02,31,14.70
2016,05,03,02,32,14.70
2016,05,03,02,33,14.70
2016,05,03,02,34,14.70
2016,05,03,02,35,14.70
2016,05,03,02,36,14.70
2016,05,03,02,37,14.70
2016,05,03,02,38,14.70
2016,05,03,02,39,14.70
2016,05,03,02,40,14.70
2016,05,03,02,41,14.70
2016,05,03,02,42,14.70
2016,05,03,02,43,14.70
2016,05,03,02,44,14.70
2016,05,03,02,45,14.70
2016,05,03,02,46,14.70
2016,05,03,02,47,14.70
2016,05,03,02,48,14.70
2016,05,03,02,49,14.70
2016,05,03,02,50,14.70
2016,05,03,02,51,14.80
2016,05,03,02,52,14.80
2016,05,03,02,53,14.80
2016,05,03,02,54,14.80
2016,05,03,02,55,14.80
2016,05,03,02,56,14.80
2016,05,03,02,57,14.80
2016,05,03,02,58,14.80
2016,05,03,02,59,14.80
2016,05,03,03,00,14.80
2016,05,03,03,01,14.80
2016,05,03,03,02,14.80
2016,05,03,03,03,14.80
2016,05,03,03,04,14.80
2016,05,03,03,05,14.80
2016,05,03,03,06,14.80
2016,05,03,03,07,14.80
2016,05,03,03,08,14.80
2016,05,03,03,09,14.80
2016,05,03,03,10,14.80
2016,05,03,03,11,14.70
2016,05,03,03,12,14.70
2016,05,03,03,13,14.70
2016,05,03,03,14,14.70
2016,05,03,03,15,14.70
2016,05,03,03,16,14.70
2016,05,03,03,17,14.70
2016,05,03,03,18,14.70
2016,05,03,03,19,14.70
2016,05,03,03,20,14.70
2016,05,03,03,21,14.70
2016,05,03,03,22,14.70
2016,05,03,03,23,14.70
2016,05,03,03,24,14.70
2016,05,03,03,25,14.70
2016,05,03,03,26,14.70
2016,05,03,03,27,14.70
2016,05,03,03,28,14.70
2016,05,03,03,29,14.70
2016,05,03,03,30,14.70
2016,05,03,03,31,14.70
2016,05,03,03,32,14.70
2016,05,03,03,33,14.70
2016,05,03,03,34,14.70
2016,05,03,03,35,14.70
2016,05,03,03,36,14.70
2016,05,03,03,37,14.70
2016,05,03,03,38,14.70
2016,05,03,03,39,14.70
2016,05,03,03,40,14.70
2016,05,03,03,41,14.70
2016,05,03,03,42,14.80
2016,05,03,03,43,14.80
2016,05,03,03,44,14.80
2016,05,03,03,45,14.80
2016,05,03,03,46,14.80
2016,05,03,03,47,14.80
2016,05,03,03,48,14.90
2016,05,03,03,49,14.90
2016,05,03,03,50,14.90
2016,05,03,03,51,14.90
2016,05,03,03,52,14.90
2016,05,03,03,53,14.90
2016,05,03,03,54,14.90
2016,05,03,03,55,14.90
2016,05,03,03,56,14.90
2016,05,03,03,57,14.90
2016,05,03,03,58,14.90
2016,05,03,03,59,14.90
2016,05,03,04,00,14.90
2016,05,03,04,01,15.00
2016,05,03,04,02,15.00
2016,05,03,04,04,15.00
2016,05,03,04,05,15.00
2016,05,03,04,06,14.90
2016,05,03,04,07,14.90
2016,05,03,04,08,14.90
2016,05,03,04,09,14.90
2016,05,03,04,10,14.90
2016,05,03,04,11,14.90
2016,05,03,04,12,14.90
2016,05,03,04,13,14.90
2016,05,03,04,14,14.80
2016,05,03,04,15,14.80
2016,05,03,04,16,14.80
2016,05,03,04,17,14.80
2016,05,03,04,18,14.80
2016,05,03,04,19,14.80
2016,05,03,04,20,14.80
2016,05,03,04,21,14.80
2016,05,03,04,22,14.70
2016,05,03,04,23,14.70
2016,05,03,04,24,14.70
2016,05,03,04,25,14.70
2016,05,03,04,26,14.70
2016,05,03,04,27,14.60
2016,05,03,04,28,14.60
2016,05,03,04,29,14.60
2016,05,03,04,30,14.60
2016,05,03,04,31,14.60
2016,05,03,04,32,14.60
2016,05,03,04,33,14.60
2016,05,03,04,34,14.50
2016,05,03,04,35,14.50
2016,05,03,04,36,14.50
2016,05,03,04,37,14.60
2016,05,03,04,38,14.50
2016,05,03,04,39,14.60
2016,05,03,04,40,14.60
2016,05,03,04,41,14.60
2016,05,03,04,42,14.60
2016,05,03,04,43,14.60
2016,05,03,04,44,14.60
2016,05,03,04,45,14.60
2016,05,03,04,46,14.60
2016,05,03,04,47,14.60
2016,05,03,04,48,14.60
2016,05,03,04,49,14.60
2016,05,03,04,50,14.50
2016,05,03,04,51,14.50
2016,05,03,04,52,14.50
2016,05,03,04,53,14.40
2016,05,03,04,54,14.40
2016,05,03,04,55,14.40
2016,05,03,04,56,14.40
2016,05,03,04,57,14.40
2016,05,03,04,58,14.40
2016,05,03,04,59,14.40
2016,05,03,05,00,14.40
2016,05,03,05,01,14.30
2016,05,03,05,02,14.30
2016,05,03,05,03,14.30
2016,05,03,05,04,14.30
2016,05,03,05,05,14.30
2016,05,03,05,06,14.30
2016,05,03,05,09,14.30
2016,05,03,05,11,14.30
2016,05,03,05,12,14.30
2016,05,03,05,13,14.30
2016,05,03,05,14,14.30
2016,05,03,05,15,14.30
2016,05,03,05,16,14.30
2016,05,03,05,17,14.30
2016,05,03,05,18,14.30
2016,05,03,05,19,14.30
2016,05,03,05,20,14.30
2016,05,03,05,21,14.30
2016,05,03,05,22,14.30
2016,05,03,05,23,14.30
2016,05,03,05,24,14.30
2016,05,03,05,25,14.30
2016,05,03,05,26,14.30
2016,05,03,05,27,14.30
2016,05,03,05,28,14.30
2016,05,03,05,29,14.30
2016,05,03,05,30,14.30
2016,05,03,05,31,14.30
2016,05,03,05,32,14.30
2016,05,03,05,33,14.30
2016,05,03,05,34,14.30
2016,05,03,05,35,14.30
2016,05,03,05,36,14.30
2016,05,03,05,37,14.30
2016,05,03,05,38,14.20
2016,05,03,05,39,14.20
2016,05,03,05,40,14.20
2016,05,03,05,41,14.20
2016,05,03,05,42,14.20
2016,05,03,05,43,14.20
2016,05,03,05,44,14.20
2016,05,03,05,45,14.20
2016,05,03,05,46,14.10
2016,05,03,05,47,14.10
2016,05,03,05,48,14.10
2016,05,03,05,49,14.10
2016,05,03,05,50,14.00
2016,05,03,05,51,14.00
2016,05,03,05,53,13.90
2016,05,03,05,54,13.80
2016,05,03,05,55,13.80
2016,05,03,05,56,13.80
2016,05,03,05,57,13.80
2016,05,03,05,58,13.80
2016,05,03,05,59,13.80
2016,05,03,06,00,13.70
2016,05,03,06,01,13.70
2016,05,03,06,02,13.70
2016,05,03,06,03,13.70
2016,05,03,06,04,13.70
2016,05,03,06,05,13.60
2016,05,03,06,06,13.60
2016,05,03,06,07,13.60
2016,05,03,06,08,13.60
2016,05,03,06,09,13.60
2016,05,03,06,10,13.60
2016,05,03,06,11,13.50
2016,05,03,06,12,13.50
2016,05,03,06,13,13.50
2016,05,03,06,14,13.50
2016,05,03,06,15,13.50
2016,05,03,06,16,13.50
2016,05,03,06,17,13.40
2016,05,03,06,18,13.40
2016,05,03,06,19,13.40
2016,05,03,06,20,13.40
2016,05,03,06,21,13.40
2016,05,03,06,22,13.40
2016,05,03,06,23,13.40
2016,05,03,06,24,13.40
2016,05,03,06,25,13.40
2016,05,03,06,26,13.40
2016,05,03,06,27,13.40
2016,05,03,06,28,13.40
2016,05,03,06,29,13.40
2016,05,03,06,30,13.40
2016,05,03,06,31,13.40
2016,05,03,06,32,13.40
2016,05,03,06,33,13.40
2016,05,03,06,34,13.40
2016,05,03,06,35,13.40
2016,05,03,06,36,13.40
2016,05,03,06,37,13.40
2016,05,03,06,38,13.30
2016,05,03,06,39,13.30
2016,05,03,06,40,13.30
2016,05,03,06,42,13.30
2016,05,03,06,43,13.30
2016,05,03,06,44,13.20
2016,05,03,06,45,13.20
2016,05,03,06,46,13.20
2016,05,03,06,48,13.20
2016,05,03,06,49,13.20
2016,05,03,06,50,13.20
2016,05,03,06,51,13.20
2016,05,03,06,52,13.20
2016,05,03,06,53,13.20
2016,05,03,06,54,13.20
2016,05,03,06,55,13.10
2016,05,03,06,56,13.10
2016,05,03,06,57,13.10
2016,05,03,06,58,13.10
2016,05,03,06,59,13.10
2016,05,03,07,00,13.10
2016,05,03,07,01,13.10
2016,05,03,07,02,13.10
2016,05,03,07,03,13.10
2016,05,03,07,04,13.10
2016,05,03,07,05,13.10
2016,05,03,07,06,13.10
2016,05,03,07,07,13.10
2016,05,03,07,08,13.10
2016,05,03,07,09,13.10
2016,05,03,07,10,13.20
2016,05,03,07,11,13.10
2016,05,03,07,12,13.20
2016,05,03,07,13,13.20
2016,05,03,07,14,13.20
2016,05,03,07,15,13.20
2016,05,03,07,16,13.20
2016,05,03,07,17,13.20
2016,05,03,07,18,13.20
2016,05,03,07,19,13.20
2016,05,03,07,20,13.20
2016,05,03,07,23,13.20
2016,05,03,07,25,13.20
2016,05,03,07,26,13.20
2016,05,03,07,27,13.10
2016,05,03,07,28,13.10
2016,05,03,07,29,13.20
2016,05,03,07,30,13.10
2016,05,03,07,31,13.10
2016,05,03,07,32,13.10
2016,05,03,07,33,13.10
2016,05,03,07,34,13.10
2016,05,03,07,35,13.10
2016,05,03,07,36,13.10
2016,05,03,07,37,13.10
2016,05,03,07,38,13.10
2016,05,03,07,39,13.10
2016,05,03,07,40,13.10
2016,05,03,07,41,13.10
2016,05,03,07,42,13.10
2016,05,03,07,43,13.10
2016,05,03,07,44,13.10
2016,05,03,07,45,13.10
2016,05,03,07,46,13.10
2016,05,03,07,47,13.10
2016,05,03,07,48,13.10
2016,05,03,07,49,13.10
2016,05,03,07,50,13.10
2016,05,03,07,51,13.10
2016,05,03,07,52,13.10
2016,05,03,07,53,13.10
2016,05,03,07,54,13.10
2016,05,03,07,55,13.20
2016,05,03,07,56,13.20
2016,05,03,07,57,13.20
2016,05,03,07,58,13.20
2016,05,03,07,59,13.20
2016,05,03,08,00,13.20
2016,05,03,08,02,13.20
2016,05,03,08,03,13.20
2016,05,03,08,04,13.20
2016,05,03,08,05,13.20
2016,05,03,08,06,13.20
2016,05,03,08,07,13.20
2016,05,03,08,08,13.20
2016,05,03,08,09,13.20
2016,05,03,08,10,13.20
2016,05,03,08,11,13.20
2016,05,03,08,12,13.20
2016,05,03,08,13,13.20
2016,05,03,08,14,13.20
2016,05,03,08,15,13.20
2016,05,03,08,16,13.20
2016,05,03,08,17,13.20
2016,05,03,08,18,13.20
2016,05,03,08,19,13.20
2016,05,03,08,20,13.20
2016,05,03,08,21,13.20
2016,05,03,08,22,13.20
2016,05,03,08,23,13.20
2016,05,03,08,24,13.20
2016,05,03,08,25,13.20
2016,05,03,08,26,13.20
2016,05,03,08,27,13.20
2016,05,03,08,28,13.20
2016,05,03,08,29,13.20
2016,05,03,08,30,13.20
2016,05,03,08,31,13.20
2016,05,03,08,32,13.20
2016,05,03,08,33,13.20
2016,05,03,08,34,13.20
2016,05,03,08,35,13.20
2016,05,03,08,36,13.20
2016,05,03,08,37,13.20
2016,05,03,08,38,13.20
2016,05,03,08,39,13.20
2016,05,03,08,40,13.20
2016,05,03,08,41,13.20
2016,05,03,08,42,13.30
2016,05,03,08,43,13.30
2016,05,03,08,44,13.30
2016,05,03,08,45,13.30
2016,05,03,08,46,13.30
2016,05,03,08,47,13.30
2016,05,03,08,48,13.30
2016,05,03,08,49,13.30
2016,05,03,08,50,13.30
2016,05,03,08,51,13.30
2016,05,03,08,52,13.30
2016,05,03,08,53,13.30
2016,05,03,08,54,13.30
2016,05,03,08,55,13.30
2016,05,03,08,56,13.30
2016,05,03,08,57,13.30
2016,05,03,08,58,13.30
2016,05,03,08,59,13.30
2016,05,03,09,00,13.30
2016,05,03,09,01,13.30
2016,05,03,09,02,13.30
2016,05,03,09,03,13.30
2016,05,03,09,04,13.30
2016,05,03,09,05,13.30
2016,05,03,09,06,13.30
2016,05,03,09,07,13.30
2016,05,03,09,08,13.30
2016,05,03,09,09,13.30
2016,05,03,09,10,13.30
2016,05,03,09,11,13.30
2016,05,03,09,12,13.30
2016,05,03,09,13,13.30
2016,05,03,09,14,13.30
2016,05,03,09,15,13.30
2016,05,03,09,16,13.30
2016,05,03,09,17,13.30
2016,05,03,09,18,13.30
2016,05,03,09,19,13.30
2016,05,03,09,20,13.30
2016,05,03,09,21,13.30
2016,05,03,09,22,13.30
2016,05,03,09,23,13.30
2016,05,03,09,24,13.30
2016,05,03,09,25,13.30
2016,05,03,09,26,13.30
2016,05,03,09,27,13.30
2016,05,03,09,28,13.40
2016,05,03,09,30,13.30
2016,05,03,09,31,13.40
2016,05,03,09,32,13.40
2016,05,03,09,33,13.40
2016,05,03,09,34,13.40
2016,05,03,09,35,13.40
2016,05,03,09,36,13.40
2016,05,03,09,37,13.40
2016,05,03,09,38,13.40
2016,05,03,09,39,13.40
2016,05,03,09,40,13.40
2016,05,03,09,41,13.40
2016,05,03,09,42,13.40
2016,05,03,09,43,13.40
2016,05,03,09,44,13.40
2016,05,03,09,45,13.40
2016,05,03,09,46,13.40
2016,05,03,09,47,13.40
2016,05,03,09,48,13.40
2016,05,03,09,49,13.40
2016,05,03,09,50,13.40
2016,05,03,09,51,13.40
2016,05,03,09,52,13.40
2016,05,03,09,53,13.40
2016,05,03,09,54,13.40
2016,05,03,09,55,13.40
2016,05,03,09,56,13.40
2016,05,03,09,57,13.40
2016,05,03,09,58,13.40
2016,05,03,10,00,13.40
2016,05,03,10,01,13.40
2016,05,03,10,02,13.40
2016,05,03,10,03,13.50
2016,05,03,10,04,13.40
2016,05,03,10,05,13.40
2016,05,03,10,06,13.40
2016,05,03,10,07,13.40
2016,05,03,10,08,13.40
2016,05,03,10,09,13.40
2016,05,03,10,10,13.40
2016,05,03,10,11,13.40
2016,05,03,10,12,13.40
2016,05,03,10,13,13.40
2016,05,03,10,14,13.40
2016,05,03,10,15,13.40
2016,05,03,10,16,13.40
2016,05,03,10,17,13.40
2016,05,03,10,18,13.40
2016,05,03,10,19,13.40
2016,05,03,10,20,13.40
2016,05,03,10,21,13.40
2016,05,03,10,22,13.40
2016,05,03,10,23,13.40
2016,05,03,10,24,13.40
2016,05,03,10,25,13.40
2016,05,03,10,26,13.40
2016,05,03,10,27,13.50
2016,05,03,10,28,13.50
2016,05,03,10,29,13.50
2016,05,03,10,30,13.50
2016,05,03,10,31,13.60
2016,05,03,10,32,13.60
2016,05,03,10,33,13.60
2016,05,03,10,34,13.60
2016,05,03,10,35,13.60
2016,05,03,10,36,13.60
2016,05,03,10,37,13.60
2016,05,03,10,38,13.60
2016,05,03,10,39,13.60
2016,05,03,10,40,13.60
2016,05,03,10,41,13.70
2016,05,03,10,42,13.70
2016,05,03,10,43,13.70
2016,05,03,10,44,13.70
2016,05,03,10,45,13.70
2016,05,03,10,46,13.70
2016,05,03,10,47,13.70
2016,05,03,10,48,13.70
2016,05,03,10,49,13.70
2016,05,03,10,50,13.80
2016,05,03,10,51,13.80
2016,05,03,10,52,13.80
2016,05,03,10,53,13.80
2016,05,03,10,54,13.80
2016,05,03,10,55,13.80
2016,05,03,10,56,13.80
2016,05,03,10,57,13.80
2016,05,03,10,58,13.80
2016,05,03,10,59,13.80
2016,05,03,11,00,13.80
2016,05,03,11,01,13.80
2016,05,03,11,03,13.90
2016,05,03,11,04,13.90
2016,05,03,11,05,13.90
2016,05,03,11,06,13.90
2016,05,03,11,07,13.90
2016,05,03,11,08,13.90
2016,05,03,11,09,13.90
2016,05,03,11,10,13.90
2016,05,03,11,11,13.90
2016,05,03,11,12,14.00
2016,05,03,11,13,14.00
2016,05,03,11,14,14.10
2016,05,03,11,15,14.10
2016,05,03,11,16,14.10
2016,05,03,11,17,14.10
2016,05,03,11,18,14.10
2016,05,03,11,19,14.10
2016,05,03,11,20,14.10
2016,05,03,11,21,14.20
2016,05,03,11,22,14.20
2016,05,03,11,23,14.20
2016,05,03,11,24,14.20
2016,05,03,11,25,14.20
2016,05,03,11,26,14.10
2016,05,03,11,27,14.10
2016,05,03,11,28,14.10
2016,05,03,11,29,14.10
2016,05,03,11,30,14.10
2016,05,03,11,31,14.10
2016,05,03,11,32,14.10
2016,05,03,11,33,14.10
2016,05,03,11,34,14.10
2016,05,03,11,35,14.20
2016,05,03,11,36,14.20
2016,05,03,11,37,14.20
2016,05,03,11,38,14.20
2016,05,03,11,39,14.20
2016,05,03,11,40,14.20
2016,05,03,11,41,14.20
2016,05,03,11,42,14.20
2016,05,03,11,43,14.20
2016,05,03,11,45,14.20
2016,05,03,11,46,14.20
2016,05,03,11,47,14.20
2016,05,03,11,48,14.20
2016,05,03,11,49,14.10
2016,05,03,11,50,14.10
2016,05,03,11,51,14.10
2016,05,03,11,52,14.10
2016,05,03,11,53,14.10
2016,05,03,11,54,14.10
2016,05,03,11,55,14.20
2016,05,03,11,56,14.20
2016,05,03,11,57,14.20
2016,05,03,11,58,14.20
2016,05,03,11,59,14.20
2016,05,03,12,00,14.20
2016,05,03,12,01,14.30
2016,05,03,12,02,14.30
2016,05,03,12,03,14.30
2016,05,03,12,04,14.40
2016,05,03,12,05,14.40
2016,05,03,12,06,14.50
2016,05,03,12,07,14.50
2016,05,03,12,08,14.50
2016,05,03,12,09,14.50
2016,05,03,12,10,14.50
2016,05,03,12,11,14.50
2016,05,03,12,12,14.50
2016,05,03,12,13,14.50
2016,05,03,12,14,14.50
2016,05,03,12,15,14.50
2016,05,03,12,16,14.50
2016,05,03,12,17,14.50
2016,05,03,12,18,14.50
2016,05,03,12,19,14.50
2016,05,03,12,20,14.60
2016,05,03,12,21,14.60
2016,05,03,12,22,14.60
2016,05,03,12,23,14.60
2016,05,03,12,24,14.50
2016,05,03,12,25,14.60
2016,05,03,12,26,14.60
2016,05,03,12,27,14.60
2016,05,03,12,28,14.60
2016,05,03,12,29,14.60
2016,05,03,12,30,14.60
2016,05,03,12,31,14.70
2016,05,03,12,32,14.70
2016,05,03,12,33,14.70
2016,05,03,12,34,14.80
2016,05,03,12,35,14.80
2016,05,03,12,36,14.80
2016,05,03,12,37,14.90
2016,05,03,12,38,14.90
2016,05,03,12,39,15.00
2016,05,03,12,40,15.10
2016,05,03,12,41,15.10
2016,05,03,12,42,15.20
2016,05,03,12,43,15.30
2016,05,03,12,44,15.30
2016,05,03,12,45,15.40
2016,05,03,12,46,15.40
2016,05,03,12,47,15.40
2016,05,03,12,48,15.50
2016,05,03,12,49,15.60
2016,05,03,12,50,15.60
2016,05,03,12,51,15.60
2016,05,03,12,52,15.60
2016,05,03,12,53,15.70
2016,05,03,12,54,15.70
2016,05,03,12,55,15.80
2016,05,03,12,56,15.80
2016,05,03,12,57,15.90
2016,05,03,12,58,15.90
2016,05,03,12,59,16.00
2016,05,03,13,00,16.10
2016,05,03,13,01,16.10
2016,05,03,13,02,16.10
2016,05,03,13,03,16.20
2016,05,03,13,04,16.20
2016,05,03,13,05,16.20
2016,05,03,13,06,16.30
2016,05,03,13,07,16.30
2016,05,03,13,08,16.30
2016,05,03,13,09,16.40
2016,05,03,13,10,16.40
2016,05,03,13,11,16.30
2016,05,03,13,12,16.30
2016,05,03,13,13,16.30
2016,05,03,13,14,16.30
2016,05,03,13,15,16.20
2016,05,03,13,16,16.30
2016,05,03,13,17,16.20
2016,05,03,13,18,16.30
2016,05,03,13,19,16.30
2016,05,03,13,20,16.30
2016,05,03,13,21,16.30
2016,05,03,13,22,16.30
2016,05,03,13,23,16.30
2016,05,03,13,24,16.30
2016,05,03,13,25,16.30
2016,05,03,13,26,16.40
2016,05,03,13,27,16.40
2016,05,03,13,28,16.40
2016,05,03,13,29,16.40
2016,05,03,13,30,16.40
2016,05,03,13,31,16.40
2016,05,03,13,32,16.50
2016,05,03,13,33,16.60
2016,05,03,13,34,16.70
2016,05,03,13,35,16.70
2016,05,03,13,36,16.80
2016,05,03,13,37,16.80
2016,05,03,13,38,16.80
2016,05,03,13,39,16.90
2016,05,03,13,40,16.90
2016,05,03,13,41,16.90
2016,05,03,13,42,16.90
2016,05,03,13,44,17.00
2016,05,03,13,45,17.00
2016,05,03,13,46,17.10
2016,05,03,13,47,17.10
2016,05,03,13,48,17.10
2016,05,03,13,49,17.10
2016,05,03,13,50,17.10
2016,05,03,13,51,17.10
2016,05,03,13,52,17.10
2016,05,03,13,53,17.10
2016,05,03,13,54,17.10
2016,05,03,13,55,17.10
2016,05,03,13,56,17.20
2016,05,03,13,57,17.20
2016,05,03,13,58,17.20
2016,05,03,13,59,17.20
2016,05,03,14,00,17.20
2016,05,03,14,01,17.30
2016,05,03,14,02,17.30
2016,05,03,14,03,17.40
2016,05,03,14,04,17.40
2016,05,03,14,05,17.60
2016,05,03,14,06,17.60
2016,05,03,14,07,17.70
2016,05,03,14,08,17.80
2016,05,03,14,09,17.80
2016,05,03,14,10,17.90
2016,05,03,14,11,17.90
2016,05,03,14,12,17.90
2016,05,03,14,13,17.90
2016,05,03,14,14,17.80
2016,05,03,14,15,17.80
2016,05,03,14,16,17.80
2016,05,03,14,17,17.80
2016,05,03,14,18,17.80
2016,05,03,14,19,17.80
2016,05,03,14,20,17.70
2016,05,03,14,21,17.70
2016,05,03,14,22,17.70
2016,05,03,14,23,17.70
2016,05,03,14,24,17.80
2016,05,03,14,25,17.80
2016,05,03,14,26,17.90
2016,05,03,14,27,17.90
2016,05,03,14,28,18.00
2016,05,03,14,29,18.10
2016,05,03,14,30,18.20
2016,05,03,14,31,18.20
2016,05,03,14,32,18.20
2016,05,03,14,33,18.30
2016,05,03,14,34,18.30
2016,05,03,14,35,18.30
2016,05,03,14,36,18.30
2016,05,03,14,37,18.30
2016,05,03,14,38,18.30
2016,05,03,14,39,18.30
2016,05,03,14,40,18.30
2016,05,03,14,41,18.30
2016,05,03,14,42,18.20
2016,05,03,14,43,18.20
2016,05,03,14,44,18.20
2016,05,03,14,45,18.20
2016,05,03,14,46,18.20
2016,05,03,14,47,18.10
2016,05,03,14,48,18.10
2016,05,03,14,49,18.10
2016,05,03,14,50,18.10
2016,05,03,14,51,18.00
2016,05,03,14,52,18.00
2016,05,03,14,53,17.90
2016,05,03,14,54,17.90
2016,05,03,14,55,17.90
2016,05,03,14,56,17.90
2016,05,03,14,57,17.90
2016,05,03,14,58,17.90
2016,05,03,14,59,17.90
2016,05,03,15,00,17.90
2016,05,03,15,01,17.90
2016,05,03,15,02,17.80
2016,05,03,15,03,17.80
2016,05,03,15,04,17.80
2016,05,03,15,05,17.80
2016,05,03,15,06,17.80
2016,05,03,15,07,17.80
2016,05,03,15,08,17.80
2016,05,03,15,09,17.80
2016,05,03,15,10,17.80
2016,05,03,15,11,17.90
2016,05,03,15,12,17.90
2016,05,03,15,13,17.90
2016,05,03,15,14,17.90
2016,05,03,15,15,17.90
2016,05,03,15,16,17.90
2016,05,03,15,17,17.90
2016,05,03,15,18,17.90
2016,05,03,15,19,17.90
2016,05,03,15,20,17.90
2016,05,03,15,21,17.90
2016,05,03,15,22,17.90
2016,05,03,15,23,17.90
2016,05,03,15,24,17.90
2016,05,03,15,25,17.90
2016,05,03,15,26,17.90
2016,05,03,15,27,17.90
2016,05,03,15,28,17.90
2016,05,03,15,29,17.90
2016,05,03,15,30,17.90
2016,05,03,15,31,17.90
2016,05,03,15,32,17.90
2016,05,03,15,33,17.80
2016,05,03,15,34,17.80
2016,05,03,15,35,17.80
2016,05,03,15,36,17.80
2016,05,03,15,37,17.80
2016,05,03,15,38,17.80
2016,05,03,15,39,17.80
2016,05,03,15,40,17.80
2016,05,03,15,41,17.80
2016,05,03,15,42,17.80
2016,05,03,15,43,17.80
2016,05,03,15,44,17.80
2016,05,03,15,45,17.80
2016,05,03,15,46,17.70
2016,05,03,15,47,17.70
2016,05,03,15,48,17.70
2016,05,03,15,49,17.60
2016,05,03,15,50,17.60
2016,05,03,15,51,17.60
2016,05,03,15,52,17.60
2016,05,03,15,53,17.60
2016,05,03,15,54,17.60
2016,05,03,15,55,17.60
2016,05,03,15,56,17.60
2016,05,03,15,57,17.60
2016,05,03,15,58,17.60
2016,05,03,15,59,17.60
2016,05,03,16,00,17.60
2016,05,03,16,01,17.60
2016,05,03,16,02,17.60
2016,05,03,16,03,17.60
2016,05,03,16,04,17.70
2016,05,03,16,05,17.70
2016,05,03,16,06,17.70
2016,05,03,16,07,17.70
2016,05,03,16,08,17.70
2016,05,03,16,09,17.70
2016,05,03,16,10,17.70
2016,05,03,16,11,17.70
2016,05,03,16,12,17.70
2016,05,03,16,13,17.70
2016,05,03,16,14,17.70
2016,05,03,16,15,17.60
2016,05,03,16,16,17.60
2016,05,03,16,17,17.60
2016,05,03,16,18,17.50
2016,05,03,16,19,17.40
2016,05,03,16,20,17.40
2016,05,03,16,21,17.40
2016,05,03,16,22,17.40
2016,05,03,16,23,17.40
2016,05,03,16,24,17.40
2016,05,03,16,25,17.40
2016,05,03,16,26,17.40
2016,05,03,16,27,17.40
2016,05,03,16,28,17.40
2016,05,03,16,29,17.40
2016,05,03,16,30,17.40
2016,05,03,16,31,17.40
2016,05,03,16,32,17.40
2016,05,03,16,33,17.40
2016,05,03,16,34,17.40
2016,05,03,16,35,17.40
2016,05,03,16,36,17.40
2016,05,03,16,37,17.40
2016,05,03,16,38,17.40
2016,05,03,16,39,17.40
2016,05,03,16,40,17.40
2016,05,03,16,41,17.30
2016,05,03,16,42,17.30
2016,05,03,16,43,17.30
2016,05,03,16,44,17.30
2016,05,03,16,45,17.30
2016,05,03,16,46,17.30
2016,05,03,16,48,17.20
2016,05,03,16,49,17.20
2016,05,03,16,50,17.20
2016,05,03,16,51,17.20
2016,05,03,16,52,17.20
2016,05,03,16,53,17.20
2016,05,03,16,54,17.10
2016,05,03,16,55,17.10
2016,05,03,16,56,17.10
2016,05,03,16,57,17.10
2016,05,03,16,58,17.00
2016,05,03,16,59,17.00
2016,05,03,17,00,16.90
2016,05,03,17,01,16.90
2016,05,03,17,03,16.90
2016,05,03,17,04,16.90
2016,05,03,17,05,16.90
2016,05,03,17,06,16.90
2016,05,03,17,07,16.90
2016,05,03,17,08,16.90
2016,05,03,17,09,16.90
2016,05,03,17,10,16.90
2016,05,03,17,11,16.80
2016,05,03,17,12,16.80
2016,05,03,17,13,16.80
2016,05,03,17,14,16.70
2016,05,03,17,15,16.70
2016,05,03,17,16,16.60
2016,05,03,17,17,16.60
2016,05,03,17,18,16.60
2016,05,03,17,19,16.50
2016,05,03,17,20,16.50
2016,05,03,17,21,16.40
2016,05,03,17,22,16.40
2016,05,03,17,23,16.40
2016,05,03,17,24,16.30
2016,05,03,17,25,16.30
2016,05,03,17,26,16.20
2016,05,03,17,27,16.10
2016,05,03,17,28,16.10
2016,05,03,17,30,15.90
2016,05,03,17,31,15.80
2016,05,03,17,32,15.80
2016,05,03,17,33,15.70
2016,05,03,17,34,15.70
2016,05,03,17,35,15.60
2016,05,03,17,36,15.60
2016,05,03,17,37,15.60
2016,05,03,17,38,15.50
2016,05,03,17,39,15.50
2016,05,03,17,40,15.40
2016,05,03,17,41,15.40
2016,05,03,17,42,15.40
2016,05,03,17,43,15.30